COSMOS 1275 DEB

Satellite information

Favourite Embed

Satellite Type and Status

DEBRISIN ORBIT

Key statistics

Satellite COSMOS 1275 DEB at a glance.

Uptime

16104

Days in orbit

Revolutions

≈ 14.6

Per day

Orbit

LEO

Low Earth Orbit

Inclination

82.9

Latest

Satellite identification and parameters

Extended collection of information and parameters for COSMOS 1275 DEB.

Object identification

Identified? True

Debris? True

Object name: COSMOS 1275 DEB

International designator: 1981-053HJ

Object number (NORAD): 13814

Object ID (CCSDS): 13814

Country: COMMONWEALTH OF INDEPENDENT STATES (CIS)

Current information (Y/N): Y

RCS size: SMALL

Orbital parameters

Period: 98.564 minutes

Inclination: 82.9215 deg

SMA: 7068.141 km

Apoapsis: 697.845 km

Periapsis: 682.166 km

RAAN: 202.07 deg

Eccentricy: 0.0011091

Argument of periapsis: 100.8248 deg

Mean anomaly: 23.556 deg

Mean motion: 14.60982391 rev/day

Mean motion (dot): 0.00009277 rev/day2

B* drag term: 0.0018862 1/REarth

Two-line elements (TLE)

Creation date: July 6, 2025, 6:05 p.m.

Reference frame: TEME

Reference center: EARTH

Epoch: July 6, 2025, 1:02 p.m. UTC

TLE line 0: 0 COSMOS 1275 DEB

TLE line 1: 1 13814U 81053HJ 25187.54364965 .00009277 00000-0 18862-2 0 9991

TLE line 2: 2 13814 82.9215 202.0700 0011091 100.8248 23.5560 14.60982391188586

Live tracking on map

Real-time ground track for satellite COSMOS 1275 DEB.

In-orbit conjunctions

A list of the most updated potential collisions computed for object COSMOS 1275 DEB.

Target Orbit TCA Probability of collision Miss distance Type
KITSAT 3 SSO 2025-03-23 01:29:55 0.0005369085 29.0 (m) PAYLOAD

Associated space launch

Navigation satellite providing location information for the Tsiklon-B navigation system

COSMOS 1275 DEB was lifted into orbit during the mission ‘Kosmos-3M | Parus 27’, on board a Kosmos-3M space rocket.

The launch took place on June 4, 1981, 3:41 p.m. from 132/2.

For more information about the launch, click the button.

Launch to space Kosmos-3M | Parus 27
Kosmos-3M | Parus 27

Agency: N/A

Status: Launch Successful

Launch date: June 4, 1981, 3:41 p.m. UTC

Rocket: Kosmos-3M

Launch pad: 132/2

Location: Plesetsk Cosmodrome, Russian Federation

...

Latest news about this satellite

There are no fresh news available about this satellite. Check back as we update our databases every day.


Newsletter sign-up

Weekly statistics, charts and insights to help you stay on top of the space industry.